Temp
-12 -12 -13 -13 -13 -13 -13 -13 -13 -14 -13 -13 -13 -13 -13 -13 -13 -14 -13 -13 -13 -13 -12 -13 -13 -12 -12 -12 -12 -12 -13 -13 -13 -13 -13 -13 -13 -13 -13 -13 -13 -13 -13 -13
-13 -13 -13 -13 -13 -13 -13 -13 -13 -13 -13 -12 -12 -12 -13 -13 -13 -13 -13 -13 -13 -13 -13 -13 -13 -13 -13 -13 -13 -13 -13 -13 -13 -13 -13 -13 -14 -14 -14 -14 -14 -15 -16 -15
-14 -13 -13 -13 -13 -14 -13 -13 -13 -13 -13 -13 -12 -12 -11 -12 -13 -14 -14 -14 -14 -14 -13 -13 -14 -14 -14 -14 -14 -14 -14 -14 -14 -14 -15 -15 -15 -16 -16 -16 -16 -17 -17 -17
-14 -14 -14 -14 -14 -14 -14 -13 -13 -13 -13 -13 -12 -13 -13 -12 -13 -14 -14 -14 -14 -14 -14 -14 -14 -15 -14 -15 -15 -15 -15 -15 -16 -16 -17 -17 -17 -18 -18 -18 -18 -18 -18 -19
-14 -15 -14 -15 -15 -14 -14 -14 -14 -14 -13 -13 -14 -13 -14 -13 -14 -15 -15 -15 -15 -15 -15 -15 -15 -15 -16 -16 -16 -16 -17 -17 -17 -18 -18 -18 -18 -18 -18 -18 -19 -19 -19 -19
-16 -16 -16 -16 -16 -16 -15 -16 -15 -15 -15 -14 -15 -14 -15 -14 -15 -16 -16 -16 -16 -16 -16 -17 -17 -17 -18 -17 -17 -18 -18 -18 -18 -18 -18 -18 -18 -18 -18 -18 -18 -19 -19 -19
-18 -17 -17 -17 -17 -17 -17 -17 -17 -16 -16 -16 -15 -15 -15 -15 -16 -17 -17 -18 -18 -17 -18 -18 -18 -19 -19 -18 -18 -19 -18 -19 -19 -19 -19 -19 -19 -19 -19 -19 -18 -19 -19 -19
-19 -19 -19 -19 -19 -18 -18 -19 -19 -18 -18 -18 -16 -16 -16 -16 -17 -18 -18 -19 -19 -19 -19 -19 -19 -19 -19 -19 -19 -19 -19 -19 -20 -20 -19 -19 -20 -19 -18 -19 -19 -19 -19 -19
-20 -20 -20 -20 -20 -20 -20 -20 -20 -20 -19 -19 -18 -17 -16 -17 -18 -19 -20 -20 -19 -20 -19 -19 -19 -19 -19 -19 -19 -20 -20 -21 -21 -20 -20 -19 -19 -19 -19 -19 -19 -19 -19 -18
-22 -21 -21 -21 -21 -20 -21 -21 -20 -20 -21 -21 -20 -20 -19 -17 -19 -20 -20 -20 -20 -20 -20 -20 -20 -20 -20 -20 -20 -21 -21 -21 -21 -21 -20 -20 -19 -19 -19 -19 -18 -18 -18 -18
-23 -22 -21 -20 -21 -21 -21 -21 -21 -21 -21 -21 -21 -19 -20 -19 -20 -20 -20 -20 -20 -20 -20 -20 -20 -20 -20 -20 -21 -22 -22 -22 -21 -21 -20 -20 -19 -19 -19 -19 -18 -18 -18 -18
-23 -23 -21 -22 -22 -22 -22 -22 -22 -21 -21 -21 -21 -19 -21 -21 -21 -21 -21 -21 -21 -21 -20 -20 -20 -20 -20 -21 -22 -22 -22 -22 -22 -21 -21 -20 -20 -20 -20 -19 -19 -18 -18 -17
-24 -23 -23 -22 -23 -22 -22 -22 -22 -22 -21 -21 -21 -20 -21 -21 -21 -21 -21 -21 -21 -21 -21 -20 -21 -20 -21 -22 -22 -22 -22 -22 -22 -22 -21 -21 -21 -20 -20 -20 -19 -19 -19 -18
-23 -23 -23 -23 -23 -24 -22 -22 -22 -22 -22 -22 -21 -21 -21 -22 -22 -21 -22 -22 -21 -21 -21 -21 -21 -21 -22 -22 -22 -22 -22 -22 -22 -22 -22 -22 -21 -21 -21 -20 -20 -19 -19 -18
-23 -23 -23 -23 -23 -23 -23 -23 -22 -22 -22 -22 -21 -22 -21 -23 -22 -22 -22 -22 -22 -21 -21 -21 -22 -22 -23 -23 -23 -22 -21 -21 -21 -21 -21 -21 -21 -21 -20 -20 -20 -19 -19 -18
-24 -23 -24 -23 -23 -24 -23 -23 -23 -22 -22 -22 -22 -22 -23 -23 -22 -22 -22 -22 -22 -21 -21 -22 -23 -23 -23 -23 -22 -22 -22 -22 -22 -21 -21 -21 -21 -20 -20 -20 -20 -20 -20 -20
-24 -24 -24 -23 -24 -24 -24 -23 -23 -23 -23 -23 -23 -22 -23 -23 -23 -22 -22 -22 -21 -21 -22 -23 -23 -23 -23 -23 -23 -23 -24 -24 -23 -23 -22 -21 -21 -21 -22 -22 -22 -22 -22 -21
-24 -24 -24 -24 -24 -24 -23 -23 -23 -23 -23 -23 -23 -23 -23 -23 -23 -22 -22 -22 -22 -22 -23 -23 -23 -23 -24 -24 -24 -25 -25 -25 -25 -24 -24 -23 -23 -23 -23 -23 -23 -22 -22 -22
-25 -25 -25 -25 -24 -24 -23 -24 -23 -24 -23 -23 -23 -23 -23 -23 -23 -22 -22 -22 -22 -23 -23 -24 -24 -24 -24 -25 -25 -25 -26 -26 -26 -26 -25 -25 -25 -24 -23 -23 -22 -22 -22 -22
-25 -25 -25 -25 -25 -24 -23 -24 -24 -24 -23 -24 -24 -23 -23 -23 -22 -22 -22 -22 -23 -23 -24 -24 -24 -24 -25 -25 -25 -26 -26 -27 -27 -27 -27 -26 -26 -24 -24 -23 -23 -24 -23 -23
-25 -26 -26 -25 -25 -24 -24 -24 -24 -24 -24 -24 -24 -23 -23 -23 -23 -23 -23 -23 -24 -24 -24 -24 -24 -25 -25 -25 -26 -26 -26 -27 -27 -27 -26 -26 -25 -25 -26 -25 -25 -24 -24 -23
-26 -26 -26 -25 -25 -24 -24 -24 -24 -24 -24 -24 -24 -23 -23 -23 -23 -23 -24 -24 -24 -24 -24 -24 -25 -25 -25 -25 -26 -26 -26 -26 -26 -27 -27 -26 -26 -26 -26 -25 -25 -24 -24 -24
-26 -26 -26 -26 -25 -25 -24 -25 -24 -24 -24 -24 -24 -24 -23 -24 -24 -24 -24 -24 -24 -24 -24 -24 -25 -25 -25 -25 -26 -26 -26 -26 -26 -27 -26 -26 -26 -26 -26 -25 -25 -24 -24 -24
-26 -26 -26 -25 -25 -25 -24 -24 -24 -24 -24 -24 -24 -24 -24 -24 -24 -24 -24 -24 -24 -24 -24 -24 -24 -25 -25 -25 -26 -26 -26 -26 -27 -26 -26 -27 -27 -25 -25 -24 -24 -24 -24 -24
-26 -26 -26 -25 -25 -25 -24 -24 -24 -24 -24 -24 -24 -24 -24 -24 -24 -24 -24 -24 -24 -24 -24 -24 -25 -25 -25 -26 -26 -26 -26 -27 -26 -25 -26 -26 -26 -25 -25 -25 -24 -24 -24 -24
-26 -26 -25 -25 -24 -24 -24 -24 -24 -24 -24 -24 -25 -25 -24 -24 -24 -24 -24 -24 -24 -24 -24 -24 -25 -25 -25 -26 -26 -25 -26 -26 -25 -26 -26 -26 -26 -25 -25 -25 -24 -24 -24 -24
Height
5765 5764 5765 5763 5764 5764 5764 5762 5760 5760 5758 5758 5757 5757 5754 5751 5750 5749 5748 5746 5744 5743 5742 5741 5739 5738 5736 5735 5734 5733 5732 5730 5728 5727 5725 5722 5721 5720 5720 5721 5721 5722 5724 5725
5755 5754 5753 5754 5754 5755 5754 5752 5752 5750 5748 5748 5747 5745 5743 5742 5739 5737 5735 5733 5732 5731 5730 5729 5728 5727 5725 5724 5722 5720 5718 5717 5716 5714 5712 5710 5707 5705 5704 5703 5705 5705 5705 5706
5744 5744 5745 5745 5745 5745 5743 5742 5741 5741 5739 5737 5736 5735 5731 5731 5728 5725 5724 5723 5721 5719 5717 5715 5714 5712 5710 5708 5707 5705 5704 5702 5699 5698 5695 5694 5691 5689 5688 5687 5686 5686 5687 5689
5733 5735 5734 5733 5733 5733 5733 5732 5731 5730 5729 5728 5727 5727 5722 5720 5717 5714 5713 5711 5709 5708 5706 5704 5702 5699 5696 5694 5692 5689 5686 5684 5682 5680 5678 5675 5674 5672 5671 5671 5670 5670 5671 5671
5723 5723 5721 5720 5719 5720 5721 5720 5720 5718 5717 5716 5716 5715 5711 5711 5705 5703 5701 5699 5697 5695 5693 5691 5689 5686 5683 5681 5679 5675 5672 5669 5667 5665 5664 5662 5660 5659 5657 5656 5655 5655 5654 5654
5710 5710 5709 5708 5708 5708 5709 5708 5707 5706 5706 5707 5704 5704 5706 5700 5694 5692 5690 5688 5686 5684 5682 5679 5677 5674 5672 5670 5667 5665 5662 5659 5656 5654 5652 5650 5648 5647 5645 5644 5642 5640 5638 5638
5698 5699 5697 5696 5696 5696 5697 5697 5696 5695 5693 5696 5693 5692 5695 5688 5684 5681 5679 5676 5676 5674 5672 5669 5667 5664 5661 5659 5656 5653 5650 5647 5644 5642 5640 5638 5637 5635 5634 5632 5631 5629 5628 5625
5686 5688 5687 5684 5684 5685 5685 5686 5686 5683 5684 5683 5678 5682 5680 5679 5675 5671 5669 5666 5666 5665 5662 5659 5656 5653 5650 5647 5644 5641 5637 5635 5633 5631 5629 5627 5625 5624 5622 5619 5619 5619 5616 5614
5674 5677 5675 5676 5676 5676 5672 5674 5676 5671 5670 5668 5670 5672 5667 5669 5663 5661 5660 5657 5655 5654 5651 5649 5647 5644 5640 5637 5633 5628 5625 5623 5621 5620 5618 5616 5614 5613 5612 5610 5609 5609 5605 5603
5662 5665 5665 5664 5665 5665 5665 5665 5666 5664 5660 5658 5661 5660 5658 5655 5651 5651 5650 5648 5645 5643 5641 5639 5637 5634 5630 5626 5621 5617 5613 5611 5609 5608 5606 5604 5603 5601 5601 5600 5599 5597 5594 5593
5652 5653 5655 5653 5654 5656 5653 5655 5656 5654 5652 5650 5650 5652 5647 5643 5642 5641 5640 5638 5636 5634 5631 5629 5626 5623 5619 5615 5611 5607 5604 5602 5600 5597 5595 5593 5591 5590 5589 5588 5586 5585 5584 5582
5638 5639 5643 5643 5642 5644 5643 5645 5645 5642 5644 5640 5639 5643 5636 5637 5634 5631 5629 5628 5626 5625 5622 5619 5616 5612 5608 5604 5600 5597 5594 5592 5590 5587 5584 5582 5580 5578 5577 5576 5576 5574 5573 5572
5628 5628 5629 5632 5632 5633 5632 5634 5633 5633 5632 5631 5630 5632 5628 5628 5626 5624 5620 5618 5617 5615 5612 5608 5605 5600 5596 5593 5591 5588 5584 5582 5580 5577 5575 5573 5571 5570 5569 5567 5565 5564 5563 5561
5616 5620 5621 5622 5624 5623 5624 5625 5624 5623 5620 5622 5621 5621 5624 5616 5615 5613 5609 5607 5605 5604 5601 5597 5593 5588 5585 5583 5580 5577 5575 5573 5571 5569 5567 5565 5563 5562 5560 5559 5558 5556 5554 5551
5607 5610 5609 5610 5612 5611 5611 5613 5614 5612 5614 5609 5615 5609 5615 5608 5604 5602 5599 5596 5594 5592 5589 5585 5581 5578 5576 5573 5570 5567 5564 5563 5561 5560 5558 5557 5556 5555 5553 5552 5551 5548 5546 5543
5597 5600 5599 5601 5602 5601 5600 5603 5604 5603 5603 5599 5599 5599 5602 5595 5595 5592 5589 5587 5584 5581 5577 5573 5571 5568 5565 5561 5559 5557 5554 5552 5550 5549 5548 5548 5547 5547 5546 5545 5543 5541 5538 5536
5589 5589 5589 5592 5590 5589 5589 5597 5593 5591 5591 5590 5587 5591 5587 5585 5584 5581 5580 5577 5573 5570 5566 5564 5560 5557 5554 5551 5548 5546 5543 5541 5539 5539 5538 5538 5538 5538 5538 5538 5536 5535 5532 5529
5580 5580 5579 5579 5580 5575 5583 5582 5581 5579 5581 5580 5578 5578 5576 5575 5573 5571 5569 5566 5563 5560 5557 5553 5550 5547 5544 5542 5539 5536 5534 5532 5530 5529 5527 5527 5528 5531 5531 5531 5530 5529 5528 5527
5569 5569 5566 5565 5566 5566 5572 5570 5570 5567 5571 5570 5568 5567 5567 5565 5562 5560 5558 5555 5552 5549 5546 5543 5540 5538 5536 5533 5530 5527 5525 5523 5520 5519 5519 5520 5522 5524 5524 5525 5525 5524 5524 5523
5558 5557 5555 5557 5553 5554 5562 5559 5559 5558 5559 5559 5558 5557 5556 5554 5552 5550 5547 5544 5542 5539 5537 5535 5532 5530 5527 5524 5522 5519 5517 5514 5511 5511 5512 5514 5515 5517 5517 5519 5520 5521 5520 5519
5546 5545 5545 5546 5543 5547 5548 5548 5550 5550 5553 5548 5548 5547 5546 5545 5543 5540 5538 5535 5533 5532 5529 5526 5523 5521 5520 5518 5515 5513 5511 5509 5508 5506 5507 5509 5512 5512 5514 5516 5518 5518 5518 5516
5535 5535 5537 5537 5537 5538 5540 5540 5541 5541 5539 5539 5538 5538 5537 5535 5533 5531 5529 5527 5526 5523 5520 5518 5515 5514 5513 5511 5509 5507 5506 5505 5504 5503 5504 5507 5509 5510 5513 5515 5516 5516 5514 5513
5524 5527 5528 5529 5531 5530 5531 5532 5531 5532 5532 5530 5530 5529 5527 5525 5524 5523 5521 5519 5517 5515 5513 5509 5508 5507 5507 5505 5504 5503 5502 5501 5500 5500 5504 5505 5506 5509 5511 5513 5514 5512 5510 5508
5517 5518 5519 5520 5523 5523 5523 5524 5523 5522 5522 5522 5521 5519 5518 5517 5516 5515 5514 5512 5510 5508 5506 5504 5503 5503 5502 5501 5500 5499 5499 5498 5499 5501 5503 5503 5505 5508 5510 5511 5510 5508 5506 5503
5511 5511 5512 5514 5514 5514 5514 5514 5514 5514 5514 5513 5512 5511 5511 5510 5510 5509 5508 5506 5505 5503 5502 5501 5500 5499 5498 5498 5497 5497 5496 5498 5500 5501 5501 5502 5505 5507 5507 5507 5505 5503 5501 5499
5504 5504 5505 5505 5505 5506 5506 5505 5506 5506 5505 5504 5505 5505 5504 5504 5504 5503 5501 5501 5500 5499 5498 5497 5496 5496 5496 5496 5496 5497 5497 5499 5499 5499 5500 5502 5504 5504 5503 5502 5501 5499 5497 5496
Wind_Speed
34 34 37 39 40 41 43 43 45 45 45 45 46 47 49 51 50 47 47 48 47 47 47 48 49 51 51 51 52 54 55 57 59 61 62 64 66 68 69 67 67 67 68 69
33 34 37 40 42 41 41 44 43 45 47 46 47 46 45 45 47 49 49 49 49 48 48 50 51 52 53 54 56 57 59 60 61 63 66 67 68 69 69 70 68 63 60 63
35 39 38 41 41 41 44 44 45 45 47 47 46 46 46 45 45 46 46 48 49 50 52 53 54 55 55 54 55 57 58 60 61 62 60 58 58 58 59 63 64 60 58 57
42 43 43 44 45 45 45 45 46 47 48 49 49 49 49 48 50 51 50 49 49 51 52 51 51 53 55 55 54 54 56 55 56 55 53 53 54 53 53 53 55 58 60 59
44 43 44 43 43 44 44 44 46 47 49 51 52 52 52 51 53 52 51 51 50 49 48 49 50 51 51 52 52 53 53 53 52 51 48 46 48 49 49 49 51 53 55 55
44 44 41 41 41 42 45 46 48 51 51 53 52 52 49 52 54 51 49 49 48 47 45 45 45 43 44 45 46 47 47 49 48 47 46 47 47 46 48 47 48 49 50 53
43 43 43 43 45 45 47 49 48 51 52 50 52 52 49 51 49 47 45 42 41 41 40 39 40 41 43 44 46 46 49 48 45 43 44 46 44 44 49 49 44 41 44 45
38 39 43 42 42 44 45 45 46 46 46 45 53 51 50 47 45 44 39 36 35 36 38 39 42 43 44 45 47 50 49 49 44 40 41 42 40 42 40 41 43 39 40 41
42 40 40 41 44 44 44 41 40 42 43 46 48 47 50 43 40 36 33 32 33 36 39 41 41 43 45 46 46 45 45 45 42 41 39 39 37 40 34 27 30 32 34 36
41 43 42 43 40 40 38 38 37 35 34 33 34 36 38 44 39 29 32 33 36 37 39 39 39 42 46 46 46 43 42 41 41 41 42 43 38 40 43 43 41 34 32 34
38 41 43 46 42 36 37 34 34 37 39 40 36 34 38 44 40 35 35 36 36 39 39 40 42 44 47 44 43 44 42 41 41 41 39 41 41 41 41 39 37 38 37 37
39 40 41 41 39 39 36 33 32 37 35 37 37 31 38 37 37 38 40 40 39 38 39 41 44 45 46 40 39 40 41 40 39 40 39 38 39 40 41 38 36 35 40 41
41 42 41 39 38 33 34 35 36 37 39 38 41 37 39 38 36 36 40 42 43 43 44 45 46 47 44 38 38 38 39 38 37 36 36 35 32 33 36 33 33 34 37 41
40 37 37 37 35 34 31 30 35 39 40 37 39 40 37 39 39 38 43 46 45 43 45 47 47 45 38 37 38 40 39 34 31 31 30 28 27 27 28 29 29 29 31 31
40 39 40 40 39 38 39 40 37 40 39 45 40 40 37 36 39 39 41 41 42 44 45 47 44 40 38 39 40 40 38 38 35 33 31 30 28 26 26 28 29 31 33 33
37 35 36 35 36 39 42 40 40 43 43 46 42 39 33 38 38 38 39 41 43 45 45 42 39 37 38 40 42 42 40 39 37 34 31 29 29 27 26 26 27 26 24 24
36 37 38 37 39 41 42 33 39 42 44 41 40 36 39 40 40 42 41 43 43 43 39 37 38 40 41 40 39 38 36 35 34 32 31 29 27 25 24 22 19 18 23 23
37 38 41 41 40 44 37 36 37 41 39 38 37 31 34 39 39 41 42 43 42 38 37 37 36 36 35 33 32 32 33 33 31 28 30 29 26 22 19 19 18 20 22 19
38 40 42 45 45 45 38 39 36 37 37 38 38 39 36 36 38 38 39 40 38 36 34 31 29 28 29 31 32 32 33 32 31 28 29 25 21 21 24 21 16 11 9 6
44 44 44 40 43 43 32 36 35 35 33 33 32 34 37 37 37 35 35 34 33 31 27 29 31 30 28 28 27 25 24 25 22 18 19 19 20 25 22 17 10 3 3 7
37 36 37 35 37 33 32 35 35 35 31 31 32 31 32 35 34 31 30 30 26 26 29 29 30 27 23 24 23 22 22 18 16 15 12 18 22 20 11 8 8 7 6 7
36 34 32 34 34 29 27 29 30 30 28 29 28 30 33 33 30 28 27 25 25 27 26 29 27 22 20 20 21 18 16 16 14 11 17 24 13 12 9 8 8 8 9 10
31 31 34 33 33 24 25 23 29 31 29 28 30 31 32 29 27 24 23 24 23 23 27 23 18 18 19 17 14 14 14 11 6 14 19 12 11 7 6 6 7 8 11 12
25 27 32 34 30 29 26 24 29 33 33 30 31 32 28 25 23 22 21 21 19 21 17 14 15 17 14 12 12 12 10 2 12 19 14 10 5 6 5 5 8 12 13 14
23 23 27 28 33 33 28 31 32 30 29 29 30 25 23 22 20 19 19 16 17 14 14 15 14 13 11 10 8 8 2 7 19 14 9 6 2 4 6 10 12 14 16 17
28 26 29 29 22 28 27 31 29 27 28 24 20 20 19 17 17 17 15 16 13 12 14 15 12 11 9 8 8 6 6 13 9 6 4 3 4 9 11 14 18 17 18 18
Wind_Direction
275 280 277 275 276 276 275 274 275 277 275 274 276 277 277 277 280 280 280 279 278 278 277 277 277 277 276 276 276 276 276 275 276 276 276 276 275 275 275 274 274 274 272 270
272 273 276 277 277 276 275 273 275 274 275 279 279 279 279 279 279 281 282 282 282 282 281 280 280 279 280 278 278 277 276 275 275 275 274 274 275 277 277 276 275 271 268 268
268 273 274 275 274 272 272 274 275 275 279 279 277 280 277 279 280 280 280 281 282 283 283 284 284 284 283 282 281 280 279 280 281 283 282 282 279 273 271 271 269 265 263 256
269 270 272 271 268 267 268 269 272 275 275 276 276 276 279 277 280 281 282 283 283 283 283 284 285 285 287 288 289 290 292 292 292 289 287 284 279 274 271 267 266 267 266 256
270 269 267 265 262 265 266 267 267 267 268 269 272 273 277 276 279 282 283 284 285 285 286 288 289 289 290 293 295 295 294 293 290 288 285 279 274 271 273 272 268 269 268 265
267 266 263 262 261 262 265 265 266 267 268 269 270 272 274 274 279 282 283 283 284 287 290 290 290 291 292 294 293 290 290 288 290 289 282 276 272 270 271 273 273 269 268 261
261 261 260 261 263 264 267 268 271 271 271 272 270 271 272 275 278 281 282 284 286 287 287 287 289 290 291 292 293 292 288 287 287 284 276 271 272 273 271 270 271 277 273 269
254 259 258 258 261 267 268 270 270 273 272 270 271 270 271 276 275 278 281 284 285 285 285 288 290 291 292 295 295 290 287 284 282 277 280 281 274 273 284 265 262 275 275 265
263 256 256 260 267 268 269 270 270 271 270 269 270 272 273 268 275 278 283 283 285 285 288 289 290 292 295 297 298 293 287 284 281 277 276 276 278 272 273 275 266 277 271 264
265 267 270 270 269 268 267 267 268 269 270 270 272 272 276 272 273 281 282 283 284 288 288 290 293 296 298 301 298 294 290 285 284 283 277 276 277 268 267 276 274 277 280 262
266 266 269 269 271 270 269 264 264 263 263 268 268 271 269 276 283 283 286 282 285 288 289 291 294 298 301 297 292 291 287 286 285 286 284 278 276 276 275 275 273 273 276 275
263 265 263 269 270 268 260 262 265 262 266 267 268 269 272 280 284 284 284 283 281 285 288 292 295 300 300 294 290 287 286 285 285 287 287 284 281 282 283 281 279 280 274 272
267 271 274 274 278 275 271 265 258 250 266 257 260 259 275 281 285 281 280 280 280 282 287 292 296 300 297 290 285 286 287 287 286 287 286 284 282 285 285 287 289 286 286 280
261 264 269 270 267 262 270 267 259 260 263 258 262 270 277 284 281 278 280 283 284 287 289 292 295 294 289 283 284 288 290 289 287 284 284 283 284 284 285 283 281 280 279 280
259 260 261 263 265 265 263 261 255 258 261 267 268 276 277 279 275 280 281 286 289 291 292 292 292 289 285 283 284 286 288 287 285 280 278 278 278 280 279 278 277 279 278 279
261 263 262 266 271 270 270 271 269 267 267 270 271 269 283 276 271 276 284 287 291 293 292 291 288 286 284 284 286 285 285 285 283 280 276 269 267 268 269 271 275 280 281 289
258 264 269 272 272 274 273 281 271 268 269 274 271 274 268 275 274 276 283 290 291 290 290 288 286 284 284 284 284 285 286 285 284 279 270 264 259 257 257 259 263 272 281 288
264 270 272 276 272 271 284 277 271 267 263 263 263 271 274 278 281 280 284 288 289 288 286 284 284 283 284 283 286 289 288 290 291 283 260 248 242 238 242 248 254 261 263 265
268 272 272 271 271 275 277 275 269 269 259 264 273 276 275 280 283 281 283 288 287 285 284 283 281 281 281 283 285 285 283 282 282 272 256 236 224 227 232 230 222 224 230 258
270 269 267 269 271 273 281 270 268 272 269 268 272 269 274 282 286 285 285 285 284 285 283 283 281 282 281 282 286 288 289 293 269 255 241 240 254 228 204 198 189 177 316 342
265 265 266 267 267 271 271 271 272 274 278 272 273 274 279 286 285 283 282 281 281 281 282 282 280 279 279 285 286 287 290 282 266 264 256 264 224 181 189 201 219 234 264 287
256 256 255 258 258 256 279 281 277 274 272 280 277 277 285 286 280 280 278 278 280 283 285 285 281 271 276 280 286 283 273 272 261 280 269 239 190 159 191 207 237 253 275 285
250 252 253 255 246 264 270 275 271 276 278 274 276 282 285 280 279 273 278 282 286 286 291 285 273 264 273 279 275 272 268 253 273 273 230 186 165 160 203 235 263 295 311 318
254 253 247 249 246 254 256 271 276 274 275 279 278 280 278 277 270 275 276 284 288 291 282 279 267 269 270 268 269 267 241 252 254 206 172 151 165 210 216 276 309 326 329 335
251 250 243 250 254 255 274 269 273 270 271 270 273 272 275 272 271 270 280 280 287 277 271 267 266 266 259 259 254 225 182 249 201 169 138 117 216 264 314 328 331 329 336 335
253 261 257 261 257 258 264 270 265 263 266 266 267 273 273 268 267 275 274 276 273 267 271 271 265 256 248 231 217 203 202 200 157 143 124 222 294 327 327 323 316 318 322 322